| time (UTC) | temp F | wind direction | speed MPH | gust MPH | rain 1hr in | rain 24hr in | rain mn in | humidity % | barometer mb |
| 20260503190023 | 49 | 193 | 9.0 | 12.0 | 0.08 | 0.08 | 0.08 | 49 | 1017.7 |
| 20260503184521 | 50 | 222 | 9.0 | 14.0 | 0.04 | 0.04 | 0.04 | 51 | 1018.0 |
| 20260503183017 | 50 | 227 | 11.0 | 19.0 | 0.01 | 0.01 | 0.01 | 52 | 1017.9 |
| 20260503181515 | 52 | 236 | 18.0 | 24.0 | 0.00 | 0.00 | 0.00 | 52 | 1017.9 |
| 20260503180015 | 55 | 360 | 17.0 | 30.0 | 0.00 | 0.00 | 0.00 | 45 | 1017.7 |
| 20260503174513 | 58 | 227 | 21.0 | 28.0 | 0.00 | 0.00 | 0.00 | 37 | 1017.1 |
| 20260503173012 | 59 | 229 | 21.0 | 28.0 | 0.00 | 0.00 | 0.00 | 36 | 1017.1 |
| 20260503171510 | 60 | 236 | 20.0 | 25.0 | 0.00 | 0.00 | 0.00 | 34 | 1017.5 |
| 20260503160116 | 59 | 224 | 18.0 | 25.0 | 0.00 | 0.00 | 0.00 | 36 | 1018.4 |
| 20260503071541 | 39 | 188 | 0.0 | 2.0 | 0.00 | 0.00 | 0.00 | 53 | 1019.8 |
| 20260503054535 | 40 | 194 | 0.0 | 0.0 | 0.00 | 0.00 | 0.00 | 53 | 1020.5 |
| 20260503053026 | 40 | 194 | 0.0 | 0.0 | 0.00 | 0.00 | 0.00 | 52 | 1020.7 |
| 20260503051522 | 41 | 195 | 0.0 | 1.0 | 0.00 | 0.00 | 0.00 | 51 | 1020.8 |
| 20260503050021 | 41 | 195 | 1.0 | 2.0 | 0.00 | 0.00 | 0.00 | 50 | 1020.8 |
| 20260503044522 | 41 | 360 | 0.0 | 0.0 | 0.00 | 0.00 | 0.00 | 50 | 1020.9 |
| 20260503043034 | 42 | 360 | 0.0 | 1.0 | 0.00 | 0.00 | 0.00 | 49 | 1020.8 |
| 20260503041517 | 42 | 360 | 0.0 | 2.0 | 0.00 | 0.00 | 0.00 | 48 | 1021.0 |
| 20260503040113 | 41 | 360 | 0.0 | 0.0 | 0.00 | 0.00 | 0.00 | 51 | 1021.0 |
| 20260503034513 | 40 | 360 | 0.0 | 0.0 | 0.00 | 0.00 | 0.00 | 52 | 1021.0 |
| 20260503033019 | 41 | 360 | 0.0 | 0.0 | 0.00 | 0.00 | 0.00 | 51 | 1020.9 |
| 20260503031512 | 41 | 360 | 0.0 | 0.0 | 0.00 | 0.00 | 0.00 | 51 | 1021.1 |
| 20260503030011 | 42 | 360 | 0.0 | 0.0 | 0.00 | 0.00 | 0.00 | 50 | 1021.1 |
| 20260503024522 | 42 | 360 | 0.0 | 0.0 | 0.00 | 0.00 | 0.00 | 50 | 1021.1 |
| 20260503023010 | 42 | 355 | 0.0 | 0.0 | 0.00 | 0.00 | 0.00 | 52 | 1020.9 |
| 20260503021530 | 42 | 355 | 0.0 | 0.0 | 0.00 | 0.00 | 0.00 | 52 | 1021.0 |
| 20260503020010 | 43 | 360 | 0.0 | 0.0 | 0.00 | 0.00 | 0.00 | 52 | 1021.2 |
| 20260503014510 | 45 | 355 | 0.0 | 0.0 | 0.00 | 0.00 | 0.00 | 48 | 1020.9 |
| 20260503013009 | 46 | 355 | 0.0 | 2.0 | 0.00 | 0.00 | 0.00 | 45 | 1020.8 |
| 20260503011508 | 47 | 360 | 0.0 | 0.0 | 0.00 | 0.00 | 0.00 | 42 | 1020.7 |
| 20260503010008 | 48 | 350 | 0.0 | 0.0 | 0.00 | 0.00 | 0.00 | 40 | 1020.7 |
| 20260503004507 | 49 | 355 | 0.0 | 1.0 | 0.00 | 0.00 | 0.00 | 35 | 1020.9 |
| 20260503003012 | 51 | 355 | 0.0 | 3.0 | 0.00 | 0.00 | 0.00 | 34 | 1020.7 |
| 20260503001506 | 52 | 360 | 0.0 | 3.0 | 0.00 | 0.00 | 0.00 | 29 | 1020.7 |
| 20260503000009 | 53 | 360 | 1.0 | 6.0 | 0.00 | 0.00 | 0.00 | 26 | 1020.7 |
| 20260502234505 | 53 | 322 | 4.0 | 8.0 | 0.00 | 0.00 | 0.00 | 29 | 1020.8 |
| 20260502233004 | 53 | 10 | 4.0 | 11.0 | 0.00 | 0.00 | 0.00 | 26 | 1020.8 |
| 20260502231505 | 54 | 321 | 5.0 | 10.0 | 0.00 | 0.00 | 0.00 | 26 | 1020.9 |
| 20260502230003 | 54 | 9 | 3.0 | 9.0 | 0.00 | 0.00 | 0.00 | 25 | 1021.0 |
| 20260502224501 | 54 | 321 | 2.0 | 10.0 | 0.00 | 0.00 | 0.00 | 26 | 1021.0 |
| 20260502223001 | 53 | 28 | 4.0 | 11.0 | 0.00 | 0.00 | 0.00 | 26 | 1021.0 |
| 20260502221603 | 55 | 309 | 5.0 | 13.0 | 0.00 | 0.00 | 0.00 | 24 | 1021.2 |
| 20260502220059 | 54 | 355 | 5.0 | 13.0 | 0.00 | 0.00 | 0.00 | 23 | 1021.2 |
| 20260502214558 | 54 | 11 | 7.0 | 12.0 | 0.00 | 0.00 | 0.00 | 24 | 1021.2 |
| 20260502213107 | 54 | 297 | 9.0 | 16.0 | 0.00 | 0.00 | 0.00 | 24 | 1021.0 |
| 20260502211557 | 54 | 317 | 10.0 | 16.0 | 0.00 | 0.00 | 0.00 | 26 | 1021.2 |
| 20260502210056 | 54 | 23 | 10.0 | 16.0 | 0.00 | 0.00 | 0.00 | 25 | 1021.2 |
| 20260502204555 | 54 | 303 | 9.0 | 15.0 | 0.00 | 0.00 | 0.00 | 26 | 1021.4 |
| 20260502203053 | 53 | 300 | 8.0 | 17.0 | 0.00 | 0.00 | 0.00 | 25 | 1021.5 |
| 20260502201550 | 54 | 24 | 7.0 | 16.0 | 0.00 | 0.00 | 0.00 | 25 | 1021.7 |
| 20260502200107 | 54 | 360 | 4.0 | 16.0 | 0.00 | 0.00 | 0.00 | 29 | 1021.8 |
| 20260502194604 | 53 | 325 | 8.0 | 14.0 | 0.00 | 0.00 | 0.00 | 28 | 1021.9 |
| 20260502193047 | 54 | 360 | 10.0 | 16.0 | 0.00 | 0.00 | 0.00 | 29 | 1021.9 |
| 20260502191551 | 53 | 25 | 8.0 | 15.0 | 0.00 | 0.00 | 0.00 | 26 | 1022.1 |